Wind_Speed
60 60 56 52 54 51 51 50 47 44 51 50 50 49 41 40 43 37 38 35 31 32 33 28 37 40 34 31 31 36 41 42 43 47 46 46 50 48 46 40 25 23 21 24 24
77 66 66 59 58 57 54 53 51 48 46 47 52 48 45 46 42 38 40 31 33 31 35 38 32 37 34 35 31 35 37 39 41 42 45 46 49 48 47 45 35 20 20 24 21
83 83 74 72 65 62 58 56 57 55 53 49 52 50 52 54 49 50 46 39 39 35 33 41 31 41 31 38 35 31 36 39 37 42 46 46 46 51 47 48 45 30 16 19 21
85 86 84 79 76 69 68 60 62 61 61 59 54 55 53 50 52 55 52 40 37 38 31 37 43 40 35 37 36 34 36 36 36 39 43 45 43 44 49 49 50 43 32 16 19
93 91 89 89 82 79 75 69 69 66 66 64 62 58 61 51 55 53 54 51 52 41 37 37 39 42 45 44 41 36 41 36 34 41 40 43 47 46 44 48 53 50 42 35 20
101 99 98 93 91 86 84 82 75 69 63 68 65 63 61 60 54 55 54 54 52 45 35 40 45 43 47 43 43 38 44 39 36 43 39 37 45 45 46 48 49 49 48 43 35
108 106 103 100 97 94 89 89 81 77 70 66 67 68 71 67 64 60 58 55 56 54 49 44 46 43 42 40 43 43 39 37 42 43 40 36 43 46 46 47 50 50 49 49 46
111 108 107 104 102 98 97 96 92 87 82 81 75 68 72 74 73 69 60 58 59 56 53 48 48 43 42 42 36 38 43 44 50 44 40 42 49 41 47 48 46 50 51 50 50
116 114 112 108 107 104 100 102 100 94 90 88 81 78 72 75 75 74 71 65 62 60 61 57 52 48 41 39 39 42 45 46 43 46 41 41 46 49 43 49 46 47 49 50 49
123 121 119 116 111 110 106 106 107 102 97 92 86 88 84 79 75 77 78 70 62 60 56 56 54 53 46 46 43 45 47 50 49 45 49 49 50 50 47 48 52 48 46 46 50
129 126 125 121 117 114 113 111 110 108 104 97 91 92 86 88 79 78 81 79 68 65 65 60 54 61 49 56 49 50 52 50 49 44 53 56 53 47 52 47 49 52 48 46 45
136 132 130 127 125 122 118 116 116 114 109 104 101 95 96 95 84 82 83 80 76 72 73 66 64 74 60 58 58 55 55 54 56 47 51 55 54 54 51 50 50 52 48 50 46
138 137 136 135 131 127 124 122 122 123 117 110 104 98 100 96 88 76 80 84 83 80 72 69 68 72 68 62 60 58 58 58 58 54 54 56 59 57 55 52 52 51 49 50 46
146 141 141 139 137 132 124 126 127 129 128 113 108 98 97 99 86 85 84 87 86 85 82 69 71 73 70 63 60 58 60 58 62 60 53 58 61 59 57 54 51 51 51 52 46
145 147 143 143 140 137 135 129 132 132 136 116 111 103 99 106 86 94 97 88 85 87 88 73 72 71 72 68 68 68 67 59 64 60 58 63 58 62 59 58 53 50 54 53 51
138 139 136 138 139 141 138 136 136 139 141 119 112 111 107 100 95 101 98 93 90 93 85 82 80 78 79 73 70 71 71 66 61 61 57 66 60 66 60 58 57 56 55 53 52
132 133 136 139 138 142 141 145 143 145 140 130 116 114 110 109 108 106 105 102 96 94 87 89 83 82 82 77 76 75 77 72 66 64 59 63 59 67 63 59 58 62 59 54 54
123 125 128 135 142 142 141 145 147 143 143 131 121 118 117 115 110 111 111 102 100 95 90 92 89 88 87 84 89 85 81 75 72 66 65 64 62 67 68 64 61 62 61 59 58
116 119 120 124 136 147 150 153 151 141 132 134 132 130 125 124 121 118 113 102 101 99 98 97 94 97 93 94 93 89 85 81 77 71 66 67 67 70 73 68 68 65 64 61 62
117 117 117 124 130 135 143 152 154 135 131 131 132 132 127 122 119 118 114 105 101 102 103 102 99 100 99 96 95 92 89 85 77 70 72 65 69 71 72 74 74 72 68 65 61
120 119 117 123 128 134 139 137 132 126 127 132 129 130 127 122 119 119 114 107 105 102 109 107 104 96 100 96 94 95 91 90 89 79 77 70 66 69 77 78 75 79 76 70 64
122 120 123 126 133 134 131 126 125 126 120 123 133 132 133 125 123 120 115 108 106 105 110 107 110 101 96 98 95 98 94 94 91 84 82 70 66 73 77 75 78 80 82 76 71
113 114 126 136 135 132 128 126 121 121 115 117 123 127 131 128 126 122 120 112 113 113 109 107 111 106 104 103 98 98 97 96 95 91 79 75 67 79 80 78 77 78 79 80 78
99 105 119 128 128 131 130 123 121 116 114 111 110 118 122 126 129 123 119 113 114 113 111 113 113 106 97 96 101 101 96 95 97 91 78 75 76 78 83 83 82 80 78 82 79
87 87 100 113 117 124 133 126 122 119 113 112 109 107 113 123 122 118 113 111 109 110 110 112 112 107 102 100 99 100 99 96 92 86 88 80 78 80 87 87 84 82 80 84 79
76 73 85 95 110 119 127 126 123 117 113 111 105 100 98 102 108 106 104 109 111 112 112 113 109 106 103 102 101 102 98 91 87 87 86 85 79 85 89 89 87 82 79 80 79
64 70 77 85 100 110 110 113 115 118 113 109 103 95 95 89 99 104 103 108 111 113 113 112 107 105 101 102 103 106 94 91 92 86 87 88 81 83 88 88 85 81 79 79 75
Wind_Direction
250 256 258 260 259 259 259 263 263 259 272 277 280 286 288 289 296 297 308 310 327 323 328 334 336 340 344 351 348 352 358 2 0 2 6 11 13 10 10 14 5 336 339 327 318
258 255 256 259 262 262 260 261 259 260 262 263 271 278 278 280 289 296 304 301 314 310 320 320 329 336 334 343 342 341 352 0 358 357 0 5 8 11 10 11 13 354 329 334 324
254 256 258 256 258 262 262 258 260 258 262 257 268 261 275 280 281 279 288 286 298 305 317 315 324 326 333 334 339 331 337 352 352 354 358 359 3 7 7 11 10 15 341 319 335
251 253 254 256 257 257 259 258 263 260 261 260 261 261 262 267 273 278 281 283 286 298 305 306 308 318 326 332 330 329 327 339 346 347 354 357 358 2 5 6 7 7 13 334 325
251 249 253 255 254 254 256 258 265 262 263 262 262 261 260 269 270 274 275 276 288 286 295 295 305 307 311 315 325 330 328 327 338 340 347 352 355 357 357 358 1 4 4 12 350
252 253 250 253 254 254 255 258 258 261 263 262 265 259 260 262 264 267 277 278 282 282 285 290 295 304 308 314 318 325 328 325 333 334 339 343 346 354 350 353 357 359 359 359 9
253 253 251 254 253 255 255 254 256 257 258 260 266 265 263 262 262 264 269 276 277 282 281 279 290 293 302 303 306 311 326 320 328 327 328 338 342 340 348 348 351 354 353 355 358
254 253 252 254 254 253 253 254 256 257 258 257 262 266 267 263 264 263 264 268 272 278 277 275 280 289 294 296 302 311 314 313 315 320 320 329 337 335 335 345 345 347 352 350 353
253 254 253 254 255 255 254 254 259 260 259 257 256 260 268 270 263 266 263 265 268 268 277 278 276 281 285 284 294 300 309 311 318 315 316 317 330 333 334 335 339 342 344 346 348
253 255 255 255 254 254 254 255 259 259 259 257 259 256 262 269 263 268 264 264 266 264 274 280 278 274 280 288 283 293 298 304 310 311 309 317 320 326 331 330 332 333 340 339 345
250 252 253 254 254 255 256 254 255 258 258 256 256 254 258 264 263 263 266 266 262 268 271 274 275 276 283 281 283 288 289 296 302 307 304 311 312 320 326 326 327 328 330 336 334
254 253 250 252 254 255 257 256 256 255 255 255 257 257 259 263 261 264 264 265 264 264 269 271 271 274 280 282 281 284 287 293 295 299 301 304 306 314 320 318 320 323 321 328 332
249 252 254 255 252 252 253 254 254 254 254 256 256 254 257 257 263 264 261 265 264 265 266 268 271 275 277 278 278 278 284 290 291 293 299 301 302 309 312 311 313 316 314 322 327
247 249 250 253 256 256 251 251 252 253 254 253 257 255 254 254 259 262 263 263 261 263 262 263 268 270 272 275 275 279 281 284 287 291 293 298 299 305 308 308 309 309 313 318 321
247 247 248 250 252 254 254 252 253 253 253 252 254 252 252 257 254 258 265 261 261 262 262 263 266 270 276 275 277 276 281 279 284 287 292 295 298 301 302 304 303 304 310 314 316
245 244 246 248 249 251 251 252 253 251 251 252 249 250 253 254 252 254 261 260 259 258 263 263 264 266 269 271 275 276 277 275 280 283 289 290 298 295 296 298 297 302 302 307 312
244 242 243 245 247 248 248 248 247 250 254 251 247 249 252 251 253 251 256 259 260 258 257 259 260 263 267 272 275 276 275 277 276 279 280 287 295 291 293 292 293 300 299 303 307
241 239 242 242 242 245 246 246 247 249 251 255 252 250 251 252 252 252 253 254 257 257 257 257 259 265 267 268 270 273 276 277 277 273 279 285 288 287 290 288 287 293 294 298 302
243 241 241 239 241 242 242 243 244 246 250 252 252 254 253 254 253 254 256 252 253 257 255 257 258 263 264 265 267 269 275 273 274 274 279 282 283 286 287 286 286 287 290 292 298
243 241 241 242 241 239 240 243 245 245 248 249 252 254 254 254 252 253 253 253 253 255 257 256 256 259 262 264 266 267 268 273 276 278 274 276 279 281 282 285 285 286 285 285 293
245 242 241 240 241 242 243 242 244 244 242 246 249 251 251 252 253 253 254 254 251 253 255 257 258 257 257 261 261 266 269 272 274 277 276 273 275 275 281 282 282 282 283 285 292
247 245 242 241 241 241 242 244 245 242 239 239 242 245 249 250 252 251 253 252 252 253 254 256 256 255 256 260 261 266 269 272 273 274 269 275 272 276 275 275 276 279 282 285 291
248 245 242 241 241 243 242 240 241 243 241 236 237 242 245 245 246 249 251 252 253 253 255 257 257 257 258 261 266 269 267 267 268 270 270 276 273 275 272 272 271 272 278 284 286
249 244 242 242 242 241 242 240 240 239 240 238 236 233 238 242 242 244 247 249 251 252 253 255 257 258 261 263 263 264 263 266 268 271 272 274 268 274 271 271 272 272 275 277 284
250 243 240 241 241 241 240 237 236 235 237 239 235 233 232 238 244 245 244 244 245 249 250 251 254 257 259 261 262 261 261 263 267 272 273 269 268 275 269 271 270 270 274 280 284
251 245 242 236 236 237 237 237 235 233 234 235 236 234 233 236 243 244 238 238 240 243 245 247 249 255 258 260 259 259 260 264 270 269 271 264 270 270 269 271 270 270 275 280 280
250 245 239 235 236 236 236 234 235 232 233 232 233 232 233 233 236 238 238 237 237 237 240 243 246 252 254 254 254 257 265 266 266 268 263 266 271 266 269 268 268 269 276 280 282
Height
10857 10863 10866 10868 10872 10875 10879 10881 10883 10884 10888 10889 10890 10892 10893 10896 10897 10898 10900 10899 10899 10898 10896 10895 10891 10889 10886 10884 10878 10874 10872 10869 10866 10861 10855 10848 10842 10834 10828 10824 10820 10817 10816 10814 10811
10845 10849 10856 10858 10863 10866 10869 10873 10876 10877 10879 10881 10885 10887 10887 10891 10893 10892 10894 10895 10895 10895 10894 10892 10890 10887 10885 10883 10879 10875 10872 10869 10866 10863 10858 10851 10844 10840 10831 10825 10822 10818 10817 10816 10813
10831 10837 10842 10847 10852 10856 10859 10863 10868 10870 10872 10874 10875 10879 10881 10884 10885 10887 10888 10890 10890 10891 10890 10890 10886 10885 10882 10880 10878 10876 10872 10868 10866 10864 10860 10854 10846 10839 10832 10827 10822 10820 10816 10816 10814
10816 10822 10828 10833 10838 10844 10848 10852 10856 10861 10864 10867 10868 10870 10873 10876 10878 10879 10881 10884 10886 10886 10886 10887 10884 10882 10879 10878 10876 10874 10871 10867 10863 10861 10860 10855 10850 10845 10836 10829 10822 10818 10817 10814 10812
10799 10806 10812 10818 10823 10829 10835 10840 10844 10850 10853 10857 10860 10861 10865 10868 10870 10871 10873 10876 10878 10880 10882 10882 10882 10878 10876 10874 10873 10869 10868 10867 10863 10858 10856 10855 10849 10845 10841 10834 10826 10818 10814 10811 10808
10780 10788 10795 10801 10808 10814 10819 10824 10831 10837 10841 10845 10850 10853 10857 10859 10861 10864 10865 10868 10870 10872 10875 10876 10877 10876 10873 10870 10867 10865 10864 10862 10860 10858 10854 10851 10847 10844 10838 10834 10829 10821 10816 10811 10808
10760 10766 10776 10784 10790 10797 10803 10808 10813 10823 10829 10832 10837 10843 10846 10846 10851 10853 10858 10859 10861 10862 10866 10869 10869 10870 10870 10867 10864 10860 10858 10858 10855 10855 10850 10848 10847 10840 10837 10831 10824 10820 10815 10810 10807
10738 10746 10755 10764 10772 10780 10787 10791 10796 10805 10814 10819 10825 10831 10834 10837 10839 10841 10849 10848 10852 10854 10855 10861 10860 10861 10863 10863 10859 10856 10854 10854 10852 10850 10843 10842 10844 10840 10835 10830 10824 10818 10814 10807 10802
10713 10722 10732 10743 10752 10760 10768 10772 10775 10786 10796 10804 10811 10820 10819 10822 10829 10831 10836 10836 10842 10845 10847 10849 10853 10853 10854 10855 10853 10849 10848 10847 10849 10846 10839 10833 10836 10837 10835 10827 10825 10821 10814 10807 10801
10687 10696 10705 10716 10728 10738 10748 10753 10756 10765 10776 10788 10797 10803 10810 10804 10817 10815 10822 10829 10833 10836 10839 10839 10844 10841 10848 10845 10846 10843 10841 10840 10842 10843 10833 10830 10827 10829 10830 10824 10818 10818 10818 10809 10801
10665 10672 10679 10691 10703 10715 10725 10731 10736 10745 10758 10768 10780 10786 10791 10789 10801 10807 10807 10816 10824 10824 10825 10834 10837 10822 10842 10837 10836 10836 10833 10831 10834 10837 10828 10826 10818 10823 10823 10820 10815 10810 10809 10808 10805
10624 10640 10655 10666 10678 10690 10702 10707 10711 10720 10731 10744 10757 10773 10776 10775 10786 10796 10796 10802 10810 10813 10814 10823 10825 10811 10830 10828 10828 10828 10825 10825 10822 10827 10827 10822 10809 10816 10817 10812 10810 10806 10801 10800 10798
10606 10612 10619 10633 10651 10666 10678 10679 10683 10689 10700 10719 10736 10757 10757 10762 10770 10784 10787 10787 10794 10799 10802 10809 10811 10803 10812 10818 10817 10818 10817 10818 10813 10818 10818 10815 10806 10810 10811 10805 10801 10800 10794 10792 10788
10580 10591 10603 10607 10610 10629 10656 10653 10654 10657 10661 10705 10715 10741 10745 10743 10763 10760 10771 10774 10777 10784 10785 10801 10798 10793 10798 10806 10806 10807 10808 10811 10804 10808 10809 10807 10802 10799 10800 10798 10794 10789 10786 10783 10781
10556 10564 10577 10586 10594 10604 10612 10619 10616 10632 10623 10692 10704 10721 10726 10726 10759 10748 10740 10757 10768 10763 10766 10791 10784 10785 10785 10789 10791 10793 10794 10803 10797 10796 10800 10794 10799 10793 10792 10788 10786 10780 10774 10774 10773
10524 10535 10552 10558 10568 10568 10584 10580 10578 10588 10591 10658 10680 10685 10702 10714 10728 10729 10725 10732 10744 10747 10756 10773 10769 10771 10766 10770 10776 10778 10780 10786 10791 10788 10793 10781 10791 10779 10784 10782 10774 10774 10772 10767 10764
10494 10505 10522 10533 10535 10537 10550 10540 10540 10542 10573 10619 10657 10673 10681 10693 10698 10703 10711 10708 10722 10725 10744 10744 10750 10752 10751 10757 10756 10760 10760 10771 10780 10778 10782 10775 10782 10766 10772 10773 10767 10763 10761 10760 10759
10463 10479 10491 10501 10499 10504 10508 10497 10508 10541 10562 10598 10618 10640 10651 10663 10676 10677 10683 10696 10696 10712 10725 10727 10735 10737 10740 10740 10729 10737 10746 10760 10760 10765 10770 10770 10772 10757 10756 10761 10758 10755 10747 10747 10749
10434 10448 10465 10464 10464 10469 10468 10458 10477 10527 10567 10578 10583 10601 10624 10636 10648 10652 10662 10682 10684 10690 10697 10702 10719 10714 10721 10716 10718 10728 10731 10734 10742 10755 10760 10762 10758 10750 10741 10743 10744 10744 10739 10737 10737
10405 10421 10440 10426 10426 10430 10424 10441 10458 10531 10555 10556 10556 10571 10593 10613 10616 10629 10638 10663 10673 10675 10675 10682 10693 10699 10699 10698 10706 10709 10711 10717 10726 10741 10744 10753 10749 10743 10729 10725 10726 10726 10728 10730 10732
10375 10391 10403 10392 10390 10390 10398 10432 10454 10504 10533 10532 10540 10548 10562 10577 10593 10599 10619 10637 10649 10658 10650 10657 10667 10683 10676 10687 10689 10687 10700 10704 10705 10723 10726 10734 10741 10730 10719 10713 10709 10703 10705 10715 10722
10336 10359 10363 10358 10346 10362 10390 10418 10441 10468 10494 10508 10506 10520 10532 10556 10566 10577 10591 10615 10628 10629 10626 10640 10638 10652 10663 10665 10676 10677 10686 10687 10689 10703 10699 10719 10732 10719 10710 10703 10694 10687 10682 10693 10704
10297 10317 10315 10308 10324 10347 10373 10386 10411 10431 10463 10483 10493 10508 10515 10527 10532 10554 10572 10597 10598 10602 10610 10621 10616 10633 10643 10651 10668 10669 10668 10665 10665 10672 10691 10698 10715 10698 10693 10692 10685 10680 10674 10672 10680
10258 10278 10277 10282 10307 10319 10334 10370 10384 10411 10427 10447 10471 10484 10481 10488 10508 10536 10555 10574 10572 10579 10588 10584 10591 10612 10635 10644 10635 10638 10647 10647 10644 10651 10679 10684 10686 10682 10671 10670 10671 10669 10668 10662 10664
10224 10244 10247 10257 10275 10289 10295 10330 10355 10374 10400 10415 10437 10451 10474 10477 10494 10521 10543 10548 10555 10562 10562 10562 10574 10592 10612 10616 10614 10616 10623 10626 10632 10648 10647 10665 10666 10662 10649 10649 10653 10653 10650 10649 10651
10196 10214 10215 10229 10232 10242 10260 10293 10323 10352 10372 10393 10414 10444 10462 10480 10491 10501 10517 10523 10531 10541 10542 10541 10555 10571 10588 10592 10592 10591 10596 10616 10628 10630 10630 10636 10650 10639 10629 10632 10634 10634 10636 10635 10634
10178 10184 10188 10200 10203 10210 10244 10278 10301 10330 10349 10371 10396 10425 10438 10470 10471 10470 10478 10490 10504 10514 10518 10521 10539 10555 10570 10569 10564 10563 10597 10603 10602 10609 10610 10612 10625 10618 10613 10612 10614 10616 10621 10620 10620